Powrót do katalogu

DELTA 1 DEB

AktywnyPO
NORAD 21325·DEBRIS·🇺🇸 United States

Wystrzelony Jun 12, 1975 z Vandenberg Space Force Base

Loading…

Następne Przeloty (najbliższe 24 godziny)

TLE

ŚwieżeSource: Space-Track

Epoka: Sep 14, 2026, 08:05 UTC

1 21325U 75052AT  26257.33685044  .00002622  00000-0  14856-2 0  9995
2 21325  99.7478 270.7600 0092953 244.3228 126.4600 14.08910283776076

Śledź DELTA 1 DEB w czasie rzeczywistym z AllMySat

Download on the App Store